WM1R Weather Reports


Display with metric or nautical units.
time (UTC)temp
F
wind
direction
speed
MPH
gust
MPH
rain 1hr
in
rain 24hr
in
rain mn
in
humidity
%
barometer
mb
20260507114505 43 233 2.0 4.0 0.00 0.58 0.00 90 1010.0
20260507113012 42 247 2.0 5.0 0.00 0.58 0.00 92 1010.1
20260507111517 40 196 1.0 3.0 0.00 0.58 0.00 94 1010.1
20260507110028 40 233 2.0 3.0 0.00 0.58 0.00 94 1010.2
20260507104522 40 189 1.0 5.0 0.00 0.58 0.00 95 1010.2
20260507103003 40 169 0.0 5.0 0.00 0.58 0.00 96 1010.1
20260507101512 39 213 2.0 3.0 0.00 0.58 0.00 96 1009.8
20260507100023 38 234 1.0 3.0 0.00 0.58 0.00 96 1009.7
20260507094522 37 200 2.0 4.0 0.00 0.58 0.00 96 1010.0
20260507093033 37 246 1.0 2.0 0.00 0.58 0.00 95 1009.9
20260507091513 37 219 0.0 2.0 0.00 0.58 0.00 95 1010.1
20260507090013 37 219 2.0 3.0 0.00 0.58 0.00 95 1010.2
20260507084523 38 195 1.0 2.0 0.00 0.58 0.00 95 1009.9
20260507083022 38 208 1.0 2.0 0.00 0.58 0.00 94 1010.1
20260507081526 39 201 1.0 4.0 0.00 0.58 0.00 95 1010.0
20260507080012 39 202 1.0 4.0 0.00 0.58 0.00 94 1010.1
20260507074519 40 175 3.0 6.0 0.00 0.58 0.00 95 1010.0
20260507073022 40 219 1.0 6.0 0.00 0.58 0.00 95 1009.8
20260507071527 40 236 2.0 4.0 0.00 0.58 0.00 95 1009.7
20260507070031 40 188 2.0 4.0 0.00 0.58 0.00 95 1009.6
20260507064514 40 281 0.0 2.0 0.00 0.58 0.00 95 1009.7
20260507063035 40 239 2.0 4.0 0.00 0.58 0.00 96 1009.8
20260507061525 41 207 2.0 7.0 0.00 0.58 0.00 96 1009.8
20260507060037 41 204 1.0 7.0 0.00 0.58 0.00 96 1009.4
20260507054527 41 255 2.0 7.0 0.00 0.58 0.00 96 1010.2
20260507053019 41 246 4.0 9.0 0.00 0.58 0.00 96 1010.3
20260507051523 41 264 2.0 9.0 0.00 0.58 0.00 96 1010.1
20260507050033 41 252 0.0 9.0 0.00 0.58 0.00 96 1010.3
20260507044526 41 267 1.0 5.0 0.00 0.58 0.00 96 1009.8
20260507043014 41 198 1.0 7.0 0.00 0.58 0.00 96 1009.9
20260507041521 42 228 2.0 9.0 0.00 0.58 0.00 96 1009.9
20260507040026 42 348 1.0 5.0 0.00 0.58 0.00 96 1009.8
20260507034532 42 237 1.0 6.0 0.01 0.58 0.58 96 1009.7
20260507033028 42 240 2.0 6.0 0.01 0.58 0.58 96 1010.1
20260507031518 42 188 1.0 4.0 0.02 0.58 0.58 96 1010.2
20260507030023 42 289 3.0 9.0 0.02 0.58 0.58 96 1010.2
20260507024527 43 28 1.0 8.0 0.02 0.57 0.57 96 1010.3
20260507023004 43 292 2.0 8.0 0.04 0.57 0.57 96 1010.4
20260507021505 43 284 2.0 9.0 0.05 0.56 0.56 96 1010.5
20260507020010 43 196 1.0 7.0 0.06 0.56 0.56 96 1010.4
20260507014504 43 17 2.0 5.0 0.08 0.55 0.55 96 1010.3
20260507013004 44 163 1.0 10.0 0.10 0.52 0.52 95 1010.2
20260507011506 44 238 2.0 8.0 0.08 0.51 0.51 95 1010.2
20260507010003 45 289 1.0 9.0 0.07 0.50 0.50 95 1009.9
20260507004506 45 352 1.0 6.0 0.04 0.47 0.47 95 1009.6
20260507003007 46 17 1.0 9.0 0.01 0.43 0.43 95 1009.6
20260507001507 47 50 2.0 7.0 0.01 0.43 0.43 95 1009.2
20260507000004 47 238 2.0 6.0 0.04 0.43 0.43 95 1008.9
20260506234504 48 314 0.0 4.0 0.05 0.43 0.43 95 1008.5
20260506233004 48 210 0.0 3.0 0.04 0.42 0.42 95 1008.4
20260506231508 49 266 3.0 7.0 0.04 0.42 0.42 95 1008.2
20260506230007 50 287 3.0 8.0 0.01 0.39 0.39 95 1008.0
20260506224509 51 280 2.0 5.0 0.00 0.38 0.38 94 1007.9
20260506223010 52 306 0.0 3.0 0.00 0.38 0.38 95 1008.0
20260506221508 53 296 1.0 4.0 0.02 0.38 0.38 93 1007.6
20260506220017 56 324 1.0 8.0 0.13 0.38 0.38 93 1007.4
20260506214509 57 217 0.0 2.0 0.14 0.38 0.38 94 1007.2
20260506213008 57 206 1.0 10.0 0.14 0.38 0.38 94 1007.0
20260506211514 57 215 2.0 11.0 0.13 0.40 0.36 94 1007.1
20260506210012 57 213 2.0 6.0 0.02 0.32 0.25 93 1007.2
20260506204508 58 55 1.0 6.0 0.01 0.40 0.24 92 1007.2
20260506203008 58 149 1.0 9.0 0.02 0.40 0.24 92 1007.3
20260506201509 58 220 2.0 5.0 0.02 0.39 0.23 92 1007.3
20260506200015 58 194 1.0 5.0 0.03 0.39 0.23 92 1007.4
20260506194511 58 194 1.0 8.0 0.05 0.39 0.23 92 1007.6
20260506193012 58 257 1.0 10.0 0.05 0.38 0.22 92 1007.7
20260506191511 57 290 2.0 12.0 0.06 0.37 0.21 91 1007.9
20260506190006 57 178 3.0 11.0 0.07 0.36 0.20 92 1008.2
20260506184509 57 149 1.0 5.0 0.08 0.34 0.18 92 1008.5
20260506183015 57 165 2.0 8.0 0.09 0.33 0.17 90 1008.6
20260506181517 57 275 3.0 13.0 0.09 0.31 0.15 90 1008.7
20260506180018 57 212 5.0 16.0 0.09 0.29 0.13 89 1008.7
20260506174507 57 152 2.0 15.0 0.07 0.26 0.10 91 1009.0
20260506173015 57 105 2.0 13.0 0.06 0.24 0.08 92 1009.2
20260506171518 57 199 3.0 7.0 0.04 0.22 0.06 92 1009.3
20260506170015 57 78 1.0 5.0 0.02 0.20 0.04 92 1009.3
20260506164516 57 325 2.0 6.0 0.02 0.19 0.03 91 1009.5
20260506163008 57 261 1.0 7.0 0.01 0.18 0.02 89 1009.8
20260506161515 58 187 2.0 4.0 0.02 0.18 0.02 89 1009.8
20260506160019 58 69 2.0 4.0 0.02 0.18 0.02 88 1010.0
20260506154519 58 145 1.0 5.0 0.01 0.17 0.01 88 1010.4
20260506153010 58 161 1.0 5.0 0.01 0.17 0.01 86 1010.9
20260506151511 58 172 0.0 6.0 0.00 0.16 0.00 84 1011.1
20260506150018 58 213 1.0 7.0 0.00 0.16 0.00 82 1011.0
20260506144518 58 163 1.0 5.0 0.00 0.16 0.00 81 1010.7
20260506143026 58 198 1.0 6.0 0.00 0.16 0.00 81 1010.8
20260506141511 58 202 1.0 7.0 0.00 0.16 0.00 81 1010.9
20260506140020 57 274 1.0 3.0 0.00 0.16 0.00 83 1010.9
20260506134520 57 219 1.0 7.0 0.00 0.16 0.00 83 1010.8
20260506133020 57 133 3.0 9.0 0.00 0.16 0.00 84 1010.7
20260506131522 56 120 4.0 9.0 0.00 0.16 0.00 85 1011.2
20260506130016 56 232 0.0 2.0 0.00 0.16 0.00 86 1011.6
20260506124521 55 124 1.0 2.0 0.00 0.16 0.00 86 1011.0
20260506123031 55 256 0.0 3.0 0.00 0.16 0.00 87 1011.2
20260506121506 55 93 0.0 2.0 0.00 0.16 0.00 86 1011.1
20260506120012 55 249 0.0 3.0 0.00 0.16 0.00 86 1011.2